Weather History for Paynesville, MN

Change the Weather History Date:

Saturday, January 19, 2013

  Actual Average (KLJF) Record (KLJF)
Temperature  
Mean Temperature 17 °F -  
Max Temperature 36 °F 21 °F 44 °F (1981)
Min Temperature -3 °F 1 °F -31 °F (1970)
Degree Days  
Heating Degree Days 48    
Moisture  
Dew Point 13 °F    
Average Humidity 80    
Maximum Humidity 97    
Minimum Humidity 58    
Precipitation  
Precipitation 0.00 in - - ()
Sea Level Pressure  
Sea Level Pressure 29.89 in    
Wind  
Wind Speed 10 mph (WNW)    
Max Wind Speed 33 mph    
Max Gust Speed 44 mph    
Visibility 10 miles    
Events Snow    
Averages and records for this station are not official NWS values.
T = Trace of Precipitation, MM = Missing Value Source: NWS Daily Summary

Daily Weather History Graph

Daily Weather History Graph

Search for Another Location

Airport:

Trip Planner

Search our weather history database for the weather conditions in past years. The results will help you decide how hot, cold, wet, or windy it might be!

Date:

Astronomy

Jan. 19, 2013 Rise Set
Actual Time 7:51 AM CST 5:08 PM CST
Civil Twilight 7:19 AM CST 5:40 PM CST
Nautical Twilight 6:43 AM CST 6:17 PM CST
Astronomical Twilight 6:07 AM CST 6:52 PM CST
Moon 11:38 AM CST (1/19) 1:22 AM CST (1/19)
Length of Visible Light 10h 21m
Length of Day
9h 16m
First Quarter, 57% of the Moon is Illuminated
Jan 19
First Quarter
Jan 26
Full
Feb 3
Last Quarter
Feb 10
New
Feb 17
First Quarter

Hourly Weather History & Observations

Time (CST) Temp. Windchill Dew Point Humidity Pressure Visibility Wind Dir Wind Speed Gust Speed Precip Events Conditions
12:13 AM 25.7 °F 21.5 °F 24.6 °F 96% 29.74 in 10.0 mi SSE 3.5 mph - N/A   Clear
12:33 AM 26.8 °F - 25.3 °F 94% 29.74 in 10.0 mi Calm Calm - N/A   Clear
12:54 AM 26.4 °F - 24.8 °F 94% 29.73 in 10.0 mi Calm Calm - N/A   Clear
1:13 AM 26.2 °F - 24.6 °F 94% 29.72 in 10.0 mi Calm Calm - N/A   Clear
1:33 AM 25.0 °F - 23.7 °F 95% 29.72 in 10.0 mi Calm Calm - N/A   Clear
1:53 AM 25.7 °F - 24.3 °F 94% 29.72 in 10.0 mi Calm Calm - N/A   Scattered Clouds
2:13 AM 26.6 °F - 25.2 °F 94% 29.72 in 10.0 mi Calm Calm - N/A   Mostly Cloudy
2:33 AM 25.7 °F 21.5 °F 24.4 °F 95% 29.73 in 10.0 mi SW 3.5 mph - N/A   Mostly Cloudy
2:53 AM 27.7 °F 23.8 °F 26.1 °F 94% 29.71 in 10.0 mi SSE 3.5 mph - N/A   Scattered Clouds
3:14 AM 27.5 °F 23.6 °F 25.7 °F 93% 29.69 in 10.0 mi SSE 3.5 mph - N/A   Clear
3:33 AM 28.0 °F 20.8 °F 26.2 °F 93% 29.68 in 10.0 mi South 6.9 mph - N/A   Clear
3:53 AM 27.0 °F 20.5 °F 24.6 °F 91% 29.71 in 10.0 mi WSW 5.8 mph - N/A   Clear
4:14 AM 26.6 °F - 24.8 °F 93% 29.70 in 10.0 mi Calm Calm - N/A   Clear
4:33 AM 23.9 °F - 21.7 °F 91% 29.69 in 10.0 mi Calm Calm - N/A   Clear
4:54 AM 24.1 °F - 23.0 °F 96% 29.69 in 10.0 mi Calm Calm - N/A   Clear
5:13 AM 22.3 °F - 21.4 °F 96% 29.69 in 10.0 mi Calm Calm - N/A   Clear
5:33 AM 19.8 °F - 18.5 °F 95% 29.68 in 10.0 mi Calm Calm - N/A   Clear
5:54 AM 23.4 °F 18.9 °F 22.6 °F 97% 29.67 in 10.0 mi South 3.5 mph - N/A   Scattered Clouds
6:14 AM 24.8 °F 19.1 °F 23.7 °F 96% 29.68 in 10.0 mi West 4.6 mph - N/A   Scattered Clouds
6:33 AM 25.7 °F 19.0 °F 24.3 °F 94% 29.68 in 10.0 mi West 5.8 mph - N/A   Mostly Cloudy
6:53 AM 27.5 °F 19.3 °F 25.7 °F 93% 29.69 in 10.0 mi West 8.1 mph - N/A   Mostly Cloudy
7:14 AM 28.9 °F 20.4 °F 26.2 °F 90% 29.69 in 10.0 mi WSW 9.2 mph - N/A   Mostly Cloudy
7:33 AM 29.3 °F 18.6 °F 26.4 °F 89% 29.70 in 10.0 mi West 13.8 mph - N/A   Mostly Cloudy
7:53 AM 30.2 °F 19.8 °F 26.6 °F 86% 29.70 in 10.0 mi West 13.8 mph - N/A   Scattered Clouds
8:13 AM 31.3 °F 21.1 °F 27.1 °F 85% 29.71 in 10.0 mi West 13.8 mph 19.6 mph N/A   Clear
8:33 AM 31.8 °F 21.4 °F 26.8 °F 82% 29.71 in 10.0 mi West 15.0 mph - N/A   Clear
8:53 AM 32.0 °F 22.1 °F 26.6 °F 80% 29.72 in 10.0 mi West 13.8 mph - N/A   Scattered Clouds
9:14 AM 32.2 °F 22.3 °F 27.3 °F 82% 29.74 in 10.0 mi West 13.8 mph 18.4 mph N/A   Mostly Cloudy
9:33 AM 32.0 °F 21.6 °F 27.1 °F 82% 29.75 in 10.0 mi West 15.0 mph - N/A   Mostly Cloudy
9:53 AM 32.2 °F 23.2 °F 27.1 °F 82% 29.76 in 10.0 mi West 11.5 mph 18.4 mph N/A   Clear
10:14 AM 33.4 °F 24.3 °F 27.9 °F 80% 29.76 in 10.0 mi West 12.7 mph - N/A   Scattered Clouds
10:33 AM 33.3 °F 23.7 °F 27.9 °F 81% 29.76 in 10.0 mi West 13.8 mph - N/A   Scattered Clouds
10:54 AM 35.1 °F 25.5 °F 28.9 °F 78% 29.77 in 10.0 mi West 15.0 mph 25.3 mph N/A   Scattered Clouds
11:13 AM 35.6 °F 25.5 °F 29.5 °F 78% 29.76 in 10.0 mi WNW 17.3 mph 21.9 mph N/A   Mostly Cloudy
11:33 AM 35.8 °F 26.5 °F 29.5 °F 78% 29.76 in 10.0 mi WNW 15.0 mph 21.9 mph N/A   Mostly Cloudy
11:54 AM 35.8 °F 25.7 °F 29.7 °F 78% 29.75 in 10.0 mi WNW 17.3 mph 26.5 mph N/A   Overcast
12:13 PM 36.1 °F 25.5 °F 30.0 °F 78% 29.76 in 10.0 mi West 19.6 mph 25.3 mph N/A   Overcast
12:34 PM 35.6 °F 24.8 °F 29.5 °F 78% 29.76 in 10.0 mi West 19.6 mph 38.0 mph N/A   Overcast
12:53 PM 28.8 °F 13.2 °F 23.0 °F 79% 29.80 in 7.0 mi WNW 29.9 mph 42.6 mph N/A   Overcast
1:33 PM 21.7 °F 3.7 °F 12.4 °F 67% 29.84 in 10.0 mi WNW 29.9 mph 38.0 mph N/A   Mostly Cloudy
1:53 PM 19.0 °F -0.8 °F 9.1 °F 65% 29.86 in 10.0 mi WNW 33.4 mph 43.7 mph N/A   Scattered Clouds
2:13 PM 16.2 °F -3.2 °F 7.0 °F 67% 29.88 in 10.0 mi WNW 27.6 mph 41.4 mph N/A   Scattered Clouds
2:33 PM 15.1 °F -4.4 °F 5.0 °F 64% 29.90 in 10.0 mi WNW 26.5 mph 42.6 mph N/A   Scattered Clouds
2:54 PM 14.7 °F -4.1 °F 4.1 °F 63% 29.91 in 10.0 mi WNW 24.2 mph 40.3 mph N/A   Clear
3:13 PM 14.4 °F -3.8 °F 6.1 °F 70% 29.92 in 10.0 mi WNW 21.9 mph 36.8 mph N/A   Scattered Clouds
3:34 PM 13.1 °F -8.0 °F 3.0 °F 64% 29.94 in 10.0 mi WNW 29.9 mph 40.3 mph N/A   Scattered Clouds
3:53 PM 10.9 °F -11.6 °F -1.1 °F 58% 29.96 in 10.0 mi WNW 32.2 mph 41.4 mph N/A   Clear
4:14 PM 9.7 °F -11.6 °F -1.3 °F 61% 29.99 in 10.0 mi WNW 26.5 mph 38.0 mph N/A   Clear
4:33 PM 9.0 °F -11.8 °F -0.0 °F 67% 30.00 in 7.0 mi WNW 24.2 mph 36.8 mph N/A   Mostly Cloudy
4:53 PM 7.9 °F -14.0 °F 0.7 °F 72% 30.02 in 3.0 mi WNW 26.5 mph 36.8 mph N/A Snow Light Snow
5:14 PM 6.4 °F -16.7 °F -4.2 °F 62% 30.04 in 10.0 mi WNW 28.8 mph 41.4 mph N/A   Scattered Clouds
5:33 PM 5.5 °F -16.4 °F -3.6 °F 66% 30.06 in 10.0 mi WNW 24.2 mph 35.7 mph N/A   Scattered Clouds
5:53 PM 4.6 °F -17.1 °F -2.2 °F 73% 30.08 in 10.0 mi WNW 23.0 mph 33.4 mph N/A   Mostly Cloudy
6:14 PM 3.7 °F -18.8 °F -4.4 °F 69% 30.09 in 10.0 mi WNW 24.2 mph 31.1 mph N/A   Scattered Clouds
6:33 PM 2.5 °F -21.3 °F -7.1 °F 64% 30.11 in 10.0 mi WNW 26.5 mph 33.4 mph N/A   Scattered Clouds
6:53 PM 1.4 °F -21.4 °F -6.7 °F 69% 30.13 in 10.0 mi WNW 23.0 mph 29.9 mph N/A   Clear
7:13 PM 1.0 °F -18.7 °F -6.9 °F 69% 30.14 in 10.0 mi WNW 16.1 mph 26.5 mph N/A   Clear
7:34 PM 0.5 °F -20.6 °F -7.6 °F 69% 30.16 in 10.0 mi WNW 18.4 mph 25.3 mph N/A   Clear
7:53 PM 0.3 °F -20.8 °F -7.1 °F 71% 30.16 in 10.0 mi WNW 18.4 mph 23.0 mph N/A   Clear
8:13 PM -0.0 °F -20.7 °F -6.9 °F 73% 30.18 in 10.0 mi WNW 17.3 mph 26.5 mph N/A   Clear
8:34 PM -0.4 °F -21.2 °F -6.9 °F 74% 30.18 in 10.0 mi WNW 17.3 mph 24.2 mph N/A   Scattered Clouds
8:53 PM -0.6 °F -18.6 °F -7.2 °F 73% 30.20 in 10.0 mi WNW 12.7 mph 20.7 mph N/A   Clear
9:13 PM -0.6 °F -19.4 °F -6.5 °F 76% 30.21 in 7.0 mi WNW 13.8 mph 19.6 mph N/A   Mostly Cloudy
9:34 PM -0.9 °F -19.1 °F -6.2 °F 79% 30.22 in 5.0 mi West 12.7 mph - N/A   Haze
9:53 PM -0.8 °F -19.6 °F -6.2 °F 78% 30.22 in 7.0 mi NW 13.8 mph 19.6 mph N/A   Mostly Cloudy
10:13 PM -0.9 °F -19.1 °F -7.8 °F 73% 30.22 in 10.0 mi NW 12.7 mph 19.6 mph N/A   Clear
10:33 PM -1.5 °F -18.1 °F -8.3 °F 73% 30.21 in 10.0 mi NW 10.4 mph 18.4 mph N/A   Clear
10:53 PM -1.7 °F -20.8 °F -9.4 °F 70% 30.23 in 10.0 mi NW 13.8 mph - N/A   Clear
11:13 PM -2.2 °F -20.7 °F -9.4 °F 71% 30.25 in 10.0 mi WNW 12.7 mph 19.6 mph N/A   Clear
11:33 PM -2.6 °F -20.3 °F -9.4 °F 73% 30.25 in 10.0 mi WNW 11.5 mph 18.4 mph N/A   Clear
11:54 PM -3.1 °F -22.6 °F -8.9 °F 76% 30.25 in 10.0 mi WNW 13.8 mph - N/A   Clear